Preview of NWS' New Version of Forecast
This preview is not operational and should not be used for support decisions.

Regional Weather Roundup (RWR)

Issued by National Weather Service (NWS)

                            
000
ASUS45 KCYS 190410
RWRWY 

WYOMING REGIONAL WEATHER ROUNDUP
NATIONAL WEATHER SERVICE CHEYENNE WY
1000 PM MDT SUN AUG 18 2019

NOTE:  "FAIR" INDICATES FEW OR NO CLOUDS BELOW 12,000 FEET
WITH NO SIGNIFICANT WEATHER AND/OR OBSTRUCTIONS TO VISIBILITY.

WYZ001-190500-
...YELLOWSTONE NATIONAL PARK...
  
CITY           SKY/WX    TMP DP  RH WIND       PRES   REMARKS
LK YELLOWSTONE   N/A     49  38  65 NW3       30.21S                  
W YELLOWSTONE  NOT AVBL                                               

$$
WYZ002>013-054>058-071-098>099-190500-
...NORTHERN WYOMING...
  
CITY           SKY/WX    TMP DP  RH WIND       PRES   REMARKS
JACKSON        PTCLDY    56  32  40 SE6       30.11R                  
CODY           PTCLDY    69  42  37 CALM      29.98R                  
GREYBULL       MOCLDY    72  46  39 NE6       29.86R                  
WORLAND        PTCLDY    66  44  45 SW3       29.89R                  
SHERIDAN       PTCLDY    63  51  65 CALM      29.92R                  
BUFFALO        PTCLDY    65  47  52 SW7       29.99S                  
GILLETTE       CLEAR     63  53  70 S9        29.95S                  
HULETT         FAIR      63  52  67 SE6       29.98S                  
NEWCASTLE      FAIR      61  48  63 N7        29.98S                  

$$
WYZ014>020-022>026-101>103-190500-
...CENTRAL WYOMING...
  
CITY           SKY/WX    TMP DP  RH WIND       PRES   REMARKS
BIG PINEY      CLEAR     54  31  41 N8        30.18R                  
PINEDALE       CLEAR     55  36  47 N3        30.19R                  
DUBOIS         FAIR      63  27  25 NW8       30.16R                  
LANDER         PTCLDY    73  32  22 SW12      30.03R                  
RIVERTON       PTCLDY    74  32  21 W13       30.02R                  
CASPER         CLEAR     65  30  27 E5        30.01R                  
DOUGLAS        CLEAR     66  49  54 SE7       30.01R                  

$$
WYZ021-027>030-104>119-190500-
...SOUTHERN WYOMING...
  
CITY           SKY/WX    TMP DP  RH WIND       PRES   REMARKS
EVANSTON       CLEAR     69  28  21 S5        30.19R                  
KEMMERER       CLEAR     64  23  20 CALM      30.20S                  
FORT BRIDGER   NOT AVBL                                               
ROCK SPRINGS   CLEAR     68  26  20 W7        30.16R                  
DIXON          FAIR      62  31  31 E14       30.18R                  
RAWLINS        CLEAR     64  23  21 NW10      30.16R                  
SARATOGA       FAIR      61  30  31 CALM      30.19R                  
LARAMIE        CLEAR     61  26  26 W8        30.19R                  
CHEYENNE       CLEAR     67  52  58 SW7       30.10R                  
TORRINGTON     CLEAR     68  56  65 E12       29.94R                  
PINE BLUFFS    FAIR      63  52  67 SW6       30.03R                  

$$
  

000
ASUS45 KCYS 190410
RWRWY 

WYOMING REGIONAL WEATHER ROUNDUP
NATIONAL WEATHER SERVICE CHEYENNE WY
1000 PM MDT SUN AUG 18 2019

NOTE:  "FAIR" INDICATES FEW OR NO CLOUDS BELOW 12,000 FEET
WITH NO SIGNIFICANT WEATHER AND/OR OBSTRUCTIONS TO VISIBILITY.

WYZ001-190500-
YELLOWSTONE NATIONAL PARK
  
CITY           SKY/WX    TMP DP  RH WIND       PRES   REMARKS
LK YELLOWSTONE   N/A     49  38  65 NW3       30.21S                  
W YELLOWSTONE  NOT AVBL                                               

$$
WYZ002>013-054>058-071-098>099-190500-
NORTHERN WYOMING
  
CITY           SKY/WX    TMP DP  RH WIND       PRES   REMARKS
JACKSON        FAIR      56  32  40 SE6       30.11R                  
CODY           FAIR      69  42  37 CALM      29.98R                  
GREYBULL       FAIR      72  46  39 NE6       29.86R                  
WORLAND        FAIR      66  44  45 SW3       29.89R                  
SHERIDAN       FAIR      63  51  65 CALM      29.92R                  
BUFFALO        FAIR      65  47  52 SW7       29.99S                  
GILLETTE       FAIR      63  53  70 S9        29.95S                  
HULETT         FAIR      63  52  67 SE6       29.98                   
NEWCASTLE      FAIR      61  48  63 N7        29.98                   

$$
WYZ014>020-022>026-101>103-190500-
CENTRAL WYOMING
  
CITY           SKY/WX    TMP DP  RH WIND       PRES   REMARKS
BIG PINEY      FAIR      54  31  41 N8        30.18R                  
PINEDALE       FAIR      55  36  47 N3        30.19                   
DUBOIS         FAIR      63  27  25 NW8       30.16                   
LANDER         FAIR      73  32  22 SW12      30.03R                  
RIVERTON       FAIR      74  32  21 W13       30.02R                  
CASPER         FAIR      65  30  27 E5        30.01R                  
DOUGLAS        FAIR      66  49  54 SE7       30.01R                  

$$
WYZ021-027>030-104>119-190500-
SOUTHERN WYOMING
  
CITY           SKY/WX    TMP DP  RH WIND       PRES   REMARKS
EVANSTON       FAIR      69  28  21 S5        30.19R                  
KEMMERER       FAIR      64  23  20 CALM      30.20S                  
ROCK SPRINGS   FAIR      68  26  20 W7        30.16R                  
DIXON          FAIR      62  31  31 E14       30.18R                  
RAWLINS        FAIR      64  23  21 NW10      30.16R                  
SARATOGA       FAIR      61  30  31 CALM      30.19R                  
LARAMIE        FAIR      61  26  26 W8        30.19R                  
CHEYENNE       FAIR      67  52  58 SW7       30.10R                  
TORRINGTON     FAIR      68  56  65 E12       29.94R                  
PINE BLUFFS    FAIR      63  52  67 SW6       30.03R                  

$$